EW7966 Weather Reports


time (UTC)temp
F
wind
direction
speed
knots
gust
knots
rain 1hr
in
rain 24hr
in
rain mn
in
humidity
%
barometer
mb
20260507223504 63 294 8.7 13.9 0.00 0.00 0.00 30 1012.6
20260507223004 63 281 9.6 13.9 0.00 0.00 0.00 29 1012.6
20260507223002 63 281 8.7 13.9 0.00 0.00 0.00 29 1010.2
20260507222005 63 293 6.1 15.6 0.00 0.00 0.00 32 1012.7
20260507221503 63 289 9.6 15.6 0.00 0.00 0.00 31 1012.7
20260507221501 63 289 9.6 15.6 0.00 0.00 0.00 31 1010.4
20260507220503 62 289 9.6 15.6 0.00 0.00 0.00 32 1013.0
20260507220009 63 316 8.7 13.9 0.00 0.00 0.00 30 1013.0
20260507220002 63 316 7.8 13.9 0.00 0.00 0.00 30 1010.9
20260507215504 63 304 7.8 16.5 0.00 0.00 0.00 33 1013.0
20260507215005 62 290 8.7 17.4 0.00 0.00 0.00 35 1013.2
20260507214504 62 287 12.2 17.4 0.00 0.00 0.00 31 1013.2
20260507214501 62 287 12.2 17.4 0.00 0.00 0.00 31 1011.2
20260507214004 62 310 9.6 15.6 0.00 0.00 0.00 30 1013.2
20260507213504 62 280 10.4 16.5 0.00 0.00 0.00 31 1013.2
20260507213005 62 313 10.4 16.5 0.00 0.00 0.00 32 1013.3
20260507212503 62 291 10.4 16.5 0.00 0.00 0.00 32 1013.4
20260507212005 62 286 8.7 19.1 0.00 0.00 0.00 32 1013.4
20260507211504 62 298 11.3 19.1 0.00 0.00 0.00 30 1013.4
20260507211502 62 298 11.3 19.1 0.00 0.00 0.00 30 1011.6
20260507210503 62 284 11.3 17.4 0.00 0.00 0.00 30 1013.5
20260507210006 62 292 11.3 14.8 0.00 0.00 0.00 31 1013.4
20260507210004 62 292 10.4 14.8 0.00 0.00 0.00 31 1011.8
20260507205504 62 294 9.6 16.5 0.00 0.06 0.00 33 1013.4
20260507204504 62 300 13.0 19.1 0.00 0.06 0.00 30 1013.6
20260507204502 62 300 13.0 19.1 0.00 0.06 0.00 30 1012.1
20260507203003 62 288 9.6 16.5 0.00 0.06 0.00 31 1012.5
20260507202504 62 284 5.2 13.0 0.00 0.06 0.00 37 1013.9
20260507202008 62 263 7.8 13.0 0.00 0.06 0.00 32 1014.0
20260507201512 62 294 4.3 13.0 0.00 0.06 0.00 35 1012.8
20260507201507 62 294 5.2 13.0 0.00 0.06 0.00 35 1014.0
20260507201004 61 273 7.0 13.0 0.00 0.06 0.00 34 1014.2
20260507200506 61 292 7.8 16.5 0.00 0.06 0.00 35 1014.2
20260507200009 61 259 10.4 16.5 0.00 0.06 0.00 32 1013.3
20260507200007 61 259 11.3 16.5 0.00 0.06 0.00 32 1014.2
20260507195509 62 296 4.3 9.6 0.00 0.23 0.00 35 1014.2
20260507195006 61 306 3.5 9.6 0.00 0.23 0.00 32 1014.2
20260507194506 61 263 2.6 8.7 0.00 0.23 0.00 33 1014.3
20260507194006 61 244 3.5 9.6 0.00 0.23 0.00 33 1014.4
20260507193505 60 269 4.3 11.3 0.00 0.23 0.00 32 1014.5
20260507193008 60 305 7.0 11.3 0.00 0.23 0.00 35 1013.8
20260507192506 60 246 5.2 10.4 0.00 0.23 0.00 32 1014.5
20260507192005 60 244 5.2 13.0 0.00 0.23 0.00 32 1014.6
20260507191506 60 284 5.2 13.0 0.00 0.23 0.00 38 1014.6
20260507191503 60 284 4.3 13.0 0.00 0.23 0.00 38 1014.2
20260507191006 60 326 5.2 12.2 0.00 0.23 0.00 38 1014.6
20260507190507 60 285 4.3 12.2 0.00 0.23 0.00 37 1014.7
20260507190006 60 306 6.1 11.3 0.00 0.23 0.00 35 1014.8
20260507190004 60 306 6.1 11.3 0.00 0.23 0.00 35 1014.6
20260507185506 60 300 5.2 9.6 0.00 0.37 0.00 36 1014.9
20260507185006 60 301 3.5 9.6 0.00 0.37 0.00 31 1014.9
20260507184507 59 308 4.3 9.6 0.00 0.37 0.00 27 1015.0
20260507184504 59 308 3.5 9.6 0.00 0.37 0.00 27 1014.9
20260507184006 59 267 7.0 9.6 0.00 0.37 0.00 29 1015.0
20260507183505 59 226 3.5 8.7 0.00 0.37 0.00 33 1015.0
20260507183007 59 302 4.3 8.7 0.00 0.37 0.00 34 1015.0
20260507183003 59 302 4.3 8.7 0.00 0.37 0.00 34 1015.0
20260507182506 59 187 2.6 7.0 0.00 0.37 0.00 38 1015.1
20260507182007 59 309 2.6 7.0 0.00 0.37 0.00 34 1015.0
20260507181507 58 234 2.6 7.8 0.00 0.37 0.00 40 1015.2
20260507181504 58 234 2.6 7.8 0.00 0.37 0.00 40 1015.2
20260507181007 58 273 3.5 8.7 0.00 0.37 0.00 38 1015.2
20260507180506 58 215 3.5 7.0 0.00 0.37 0.00 36 1015.2
20260507180006 57 252 2.6 7.0 0.00 0.37 0.00 38 1015.3
20260507180003 57 252 2.6 7.0 0.00 0.37 0.00 38 1015.5
20260507175506 57 252 1.7 8.7 0.00 0.39 0.00 41 1015.3
20260507175005 57 263 4.3 8.7 0.00 0.39 0.00 38 1015.3
20260507174508 57 286 3.5 7.8 0.00 0.39 0.00 46 1015.4
20260507174505 57 286 3.5 7.8 0.00 0.39 0.00 46 1015.7
20260507174006 56 306 4.3 7.8 0.00 0.39 0.00 44 1015.5
20260507173506 56 297 3.5 7.8 0.00 0.39 0.00 47 1015.5
20260507173004 55 248 2.6 7.8 0.00 0.39 0.00 47 1016.0
20260507172506 55 239 3.5 8.7 0.00 0.39 0.00 48 1015.7
20260507172006 55 252 3.5 8.7 0.00 0.39 0.00 46 1015.7
20260507171505 54 265 2.6 8.7 0.00 0.39 0.00 46 1015.7
20260507171007 54 278 2.6 8.7 0.00 0.39 0.00 44 1015.7
20260507170506 54 236 3.5 9.6 0.00 0.39 0.00 45 1015.7
20260507170007 53 244 5.2 9.6 0.00 0.39 0.00 43 1015.8
20260507170005 53 244 4.3 9.6 0.00 0.39 0.00 43 1016.6
20260507165506 53 251 3.5 7.8 0.00 0.39 0.00 45 1015.9
20260507164506 53 170 3.5 10.4 0.00 0.39 0.00 46 1016.0
20260507164504 53 170 3.5 10.4 0.00 0.39 0.00 46 1016.8
20260507164006 52 227 3.5 10.4 0.00 0.39 0.00 47 1016.0
20260507163506 52 275 3.5 7.8 0.00 0.39 0.00 50 1016.0
20260507163007 52 265 4.3 8.7 0.00 0.39 0.00 50 1016.1
20260507163004 52 265 3.5 8.7 0.00 0.39 0.00 50 1017.0
20260507162006 50 284 4.3 8.7 0.00 0.39 0.00 51 1016.1
20260507161505 50 245 1.7 7.8 0.00 0.39 0.00 52 1017.3
20260507161008 50 251 2.6 7.0 0.00 0.39 0.00 53 1016.3
20260507160506 49 262 3.5 7.0 0.00 0.39 0.00 52 1016.3
20260507160005 49 271 3.5 8.7 0.00 0.39 0.00 51 1017.5
20260507155506 48 252 3.5 8.7 0.00 0.40 0.00 52 1016.3
20260507155007 48 259 2.6 7.8 0.00 0.40 0.00 52 1016.3
20260507154504 47 257 2.6 9.6 0.00 0.40 0.00 54 1016.4
20260507154502 47 257 1.7 9.6 0.00 0.40 0.00 54 1017.7
20260507154008 47 223 3.5 9.6 0.00 0.40 0.00 52 1016.4
20260507153507 47 259 4.3 7.8 0.00 0.40 0.00 53 1016.3
20260507153007 47 288 4.3 7.8 0.00 0.40 0.00 52 1016.2
20260507153003 47 288 3.5 7.8 0.00 0.40 0.00 52 1017.6
20260507152506 46 209 5.2 7.8 0.00 0.40 0.00 52 1016.2
20260507152007 46 257 4.3 9.6 0.00 0.40 0.00 53 1016.1
20260507151506 45 263 3.5 7.8 0.00 0.40 0.00 55 1016.1
20260507151005 45 240 4.3 7.8 0.00 0.40 0.00 55 1016.2
20260507150505 45 210 2.6 6.1 0.00 0.40 0.00 56 1016.3
20260507150007 44 269 3.5 7.0 0.00 0.40 0.00 55 1016.3
20260507145507 44 284 3.5 7.0 0.00 0.40 0.00 56 1016.1
20260507145007 44 258 2.6 8.7 0.00 0.40 0.00 57 1016.1
20260507144505 43 246 3.5 8.7 0.00 0.40 0.00 56 1016.2
20260507144006 43 263 1.7 7.8 0.00 0.40 0.00 58 1016.1
20260507143504 43 251 1.7 7.8 0.00 0.40 0.00 58 1016.2
20260507143006 42 252 3.5 8.7 0.00 0.40 0.00 57 1016.2
20260507143003 42 252 3.5 8.7 0.00 0.40 0.00 57 1017.9
20260507142506 42 234 3.5 8.7 0.00 0.40 0.00 57 1016.3
20260507142007 42 277 2.6 7.8 0.00 0.40 0.00 57 1016.2
20260507141506 42 263 3.5 8.7 0.00 0.40 0.00 57 1016.2
20260507141504 42 263 2.6 8.7 0.00 0.40 0.00 57 1018.0
20260507141007 41 257 3.5 8.7 0.00 0.40 0.00 56 1016.2
20260507140505 41 270 2.6 8.7 0.00 0.40 0.00 58 1016.1
20260507140006 40 247 3.5 7.8 0.00 0.40 0.00 58 1016.1
20260507140001 40 247 2.6 7.8 0.00 0.40 0.00 58 1018.1
20260507135506 40 223 2.6 6.1 0.00 0.40 0.00 57 1016.1
20260507135006 40 212 2.6 6.1 0.00 0.40 0.00 58 1016.2
20260507134510 39 240 2.6 6.1 0.00 0.40 0.00 59 1018.3
20260507134506 39 240 2.6 6.1 0.00 0.40 0.00 59 1016.2
20260507134007 39 261 1.7 6.1 0.00 0.40 0.00 60 1016.1
20260507133506 38 221 2.6 7.0 0.00 0.40 0.00 60 1016.1
20260507133006 38 234 3.5 7.8 0.00 0.40 0.00 60 1016.0
20260507133004 38 234 2.6 7.8 0.00 0.40 0.00 60 1018.2
20260507132505 38 254 3.5 7.8 0.00 0.40 0.00 60 1016.0
20260507132006 37 254 2.6 8.7 0.00 0.40 0.00 59 1015.9
20260507131506 37 238 3.5 8.7 0.00 0.40 0.00 60 1015.9
20260507131504 37 238 2.6 8.7 0.00 0.40 0.00 60 1018.2
20260507131000 37 200 3.5 8.7 0.00 0.40 0.00 61 1015.9
20260507130006 36 255 3.5 7.8 0.00 0.40 0.00 60 1015.8
20260507130004 36 255 3.5 7.8 0.00 0.40 0.00 60 1018.2
20260507125506 36 208 3.5 7.0 0.00 0.40 0.00 60 1015.7
20260507125006 35 229 3.5 7.0 0.00 0.40 0.00 62 1015.7
20260507124512 35 262 3.5 6.1 0.00 0.40 0.00 61 1017.9
20260507124506 35 262 3.5 6.1 0.00 0.40 0.00 61 1015.5
20260507124006 34 234 2.6 4.3 0.00 0.40 0.00 63 1015.4
20260507123505 33 241 1.7 4.3 0.00 0.40 0.00 64 1015.4
20260507123006 33 200 1.7 5.2 0.00 0.40 0.00 64 1017.7
20260507122506 33 211 2.6 5.2 0.00 0.40 0.00 65 1015.3
20260507122005 32 222 2.6 4.3 0.00 0.40 0.00 65 1015.3
20260507121503 32 225 1.7 4.3 0.00 0.40 0.00 65 1017.7
20260507121008 32 196 2.6 6.1 0.00 0.40 0.00 65 1015.3
20260507120015 32 234 1.7 5.2 0.00 0.40 0.00 65 1017.7
20260507120008 32 234 2.6 5.2 0.00 0.40 0.00 65 1015.3
20260507115506 32 179 3.5 5.2 0.00 0.40 0.00 65 1015.2
20260507115006 32 178 2.6 5.2 0.00 0.40 0.00 65 1015.2
20260507114505 32 225 1.7 4.3 0.00 0.40 0.00 65 1015.2
20260507114503 32 225 1.7 4.3 0.00 0.40 0.00 65 1017.6
20260507114006 32 225 1.7 4.3 0.00 0.40 0.00 65 1015.3
20260507113505 32 220 1.7 4.3 0.00 0.40 0.00 65 1015.2
20260507113017 32 241 1.7 4.3 0.00 0.40 0.00 65 1017.6
20260507113007 32 241 1.7 4.3 0.00 0.40 0.00 65 1015.2
20260507112505 32 215 1.7 4.3 0.00 0.40 0.00 65 1015.2
20260507111506 32 196 1.7 4.3 0.00 0.40 0.00 65 1015.1
20260507111504 32 196 0.9 4.3 0.00 0.40 0.00 65 1017.5
20260507110507 32 232 3.5 6.1 0.00 0.40 0.00 64 1015.1
20260507110010 32 237 3.5 7.8 0.00 0.40 0.00 64 1017.7
20260507110006 32 237 3.5 7.8 0.00 0.40 0.00 64 1015.2
20260507105505 32 236 3.5 7.8 0.00 0.40 0.00 65 1015.2
20260507105006 32 264 1.7 6.1 0.00 0.40 0.00 65 1015.2
20260507104506 32 225 2.6 5.2 0.00 0.40 0.00 65 1015.2
20260507104503 32 225 2.6 5.2 0.00 0.40 0.00 65 1017.6
20260507104006 32 227 3.5 6.1 0.00 0.40 0.00 65 1015.2
20260507103505 32 230 2.6 7.0 0.00 0.40 0.00 66 1015.3
20260507103006 32 244 3.5 7.0 0.00 0.40 0.00 66 1015.3
20260507103003 32 244 2.6 7.0 0.00 0.40 0.00 66 1017.8
20260507102505 32 231 2.6 7.0 0.00 0.40 0.00 66 1015.3
20260507102007 32 256 2.6 6.1 0.00 0.40 0.00 66 1015.4
20260507101507 32 234 1.7 4.3 0.00 0.40 0.00 66 1017.9
20260507101006 32 263 2.6 7.0 0.00 0.40 0.00 66 1015.4
20260507100506 32 247 2.6 7.0 0.00 0.40 0.00 66 1015.4
20260507100005 32 240 2.6 7.8 0.00 0.40 0.00 67 1018.0
20260507095006 32 234 2.6 6.1 0.00 0.40 0.00 68 1015.5
20260507094604 32 243 2.6 7.0 0.00 0.40 0.00 68 1018.1
20260507094459 32 247 3.5 7.0 0.00 0.40 0.00 68 1015.5
20260507094006 31 234 4.3 7.0 0.00 0.40 0.00 69 1015.5
20260507093504 31 236 5.2 7.0 0.00 0.40 0.00 69 1015.5
20260507093005 31 216 2.6 7.0 0.00 0.40 0.00 69 1015.5
20260507093003 31 216 2.6 7.0 0.00 0.40 0.00 69 1018.1
20260507092506 31 228 4.3 7.0 0.00 0.40 0.00 69 1015.6
20260507092007 31 246 2.6 7.0 0.00 0.40 0.00 70 1015.7
20260507091506 31 238 3.5 7.0 0.00 0.40 0.00 70 1015.5
20260507091503 31 238 3.5 7.0 0.00 0.40 0.00 70 1018.2
20260507091006 31 242 3.5 6.1 0.00 0.40 0.00 70 1015.6
20260507090505 31 225 2.6 7.8 0.00 0.40 0.00 71 1015.6
20260507090007 31 238 4.3 7.8 0.00 0.40 0.00 71 1015.6
20260507085500 31 311 3.5 5.2 0.00 0.40 0.00 71 1015.7
20260507085007 31 215 3.5 7.8 0.00 0.40 0.00 71 1015.7
20260507084507 31 254 2.6 7.8 0.00 0.40 0.00 72 1018.5
20260507084006 31 238 4.3 7.8 0.00 0.40 0.00 73 1015.8
20260507083506 31 249 3.5 6.1 0.00 0.40 0.00 74 1015.7
20260507083006 30 219 2.6 6.1 0.00 0.40 0.00 75 1018.4
20260507082504 30 220 3.5 6.1 0.00 0.40 0.00 76 1015.7
20260507082006 30 234 3.5 6.1 0.00 0.40 0.00 76 1015.7
20260507081506 30 230 2.6 9.6 0.00 0.40 0.00 76 1018.4
20260507081006 30 235 3.5 9.6 0.00 0.40 0.00 76 1015.8
20260507080006 30 232 1.7 7.8 0.00 0.40 0.00 77 1015.9
20260507080004 30 232 1.7 7.8 0.00 0.40 0.00 77 1018.7
20260507075504 30 209 3.5 7.0 0.00 0.40 0.00 77 1015.9
20260507074506 30 271 2.6 7.0 0.00 0.40 0.00 77 1016.0
20260507074504 30 271 2.6 7.0 0.00 0.40 0.00 77 1018.8
20260507074007 30 266 2.6 5.2 0.00 0.40 0.00 78 1016.1
20260507073505 30 251 2.6 6.1 0.00 0.40 0.00 79 1016.2
20260507073006 30 234 2.6 6.1 0.00 0.40 0.00 80 1016.3
20260507073003 30 234 1.7 6.1 0.00 0.40 0.00 80 1019.0
20260507072507 30 254 2.6 5.2 0.00 0.40 0.00 80 1016.3
20260507071506 30 251 2.6 7.0 0.00 0.40 0.00 82 1016.2
20260507071504 30 251 2.6 7.0 0.00 0.40 0.00 82 1019.0
20260507071006 29 237 2.6 7.0 0.00 0.40 0.00 83 1016.3
20260507070506 29 223 2.6 7.0 0.00 0.40 0.00 83 1016.3
20260507070058 29 211 1.7 7.0 0.00 0.40 0.00 84 1019.1
20260507070012 29 209 2.6 7.0 0.00 0.40 0.00 84 1016.3
20260507070010 29 209 2.6 7.0 0.00 0.40 0.00 84 1019.1
20260507065506 29 242 1.7 5.2 0.00 0.40 0.00 84 1016.4
20260507065006 29 201 1.7 6.1 0.00 0.40 0.00 84 1016.5
20260507064505 29 189 3.5 7.8 0.00 0.40 0.00 85 1016.3
20260507064006 29 232 4.3 7.8 0.00 0.40 0.00 85 1016.4
20260507063006 29 223 3.5 7.0 0.00 0.40 0.00 86 1016.4
20260507063004 29 223 3.5 7.0 0.00 0.40 0.00 86 1019.2
20260507062005 29 258 3.5 7.0 0.00 0.40 0.00 86 1016.3
20260507061506 29 229 2.6 6.1 0.00 0.40 0.00 86 1016.5
20260507061504 29 229 2.6 6.1 0.00 0.40 0.00 86 1019.2
20260507061006 29 197 2.6 6.1 0.00 0.40 0.00 86 1016.5
20260507060007 29 219 2.6 8.7 0.00 0.40 0.00 87 1016.5
20260507060003 29 219 1.7 8.7 0.00 0.40 0.00 87 1019.3
20260507055504 29 229 4.3 8.7 0.00 0.40 0.40 87 1016.5
20260507055005 29 214 3.5 8.7 0.00 0.40 0.40 88 1016.5
20260507054506 29 234 1.7 5.2 0.00 0.40 0.40 87 1016.5
20260507054503 29 234 1.7 5.2 0.00 0.40 0.40 87 1019.3
20260507054005 29 199 1.7 4.3 0.00 0.40 0.40 87 1016.4
20260507053504 29 192 1.7 3.5 0.00 0.40 0.40 87 1016.4
20260507053006 29 215 1.7 5.2 0.00 0.40 0.40 87 1016.4
20260507052505 30 209 1.7 5.2 0.00 0.40 0.40 87 1016.3
20260507052002 30 202 1.7 7.0 0.00 0.40 0.40 87 1016.3
20260507051504 30 196 2.6 7.0 0.00 0.40 0.40 87 1016.3
20260507051005 30 183 2.6 6.1 0.00 0.40 0.40 87 1016.2
20260507050504 30 211 2.6 5.2 0.00 0.40 0.40 87 1016.3
20260507050002 30 190 1.7 5.2 0.00 0.40 0.40 87 1019.1
20260507045504 30 200 1.7 6.1 0.00 0.40 0.40 87 1016.4
20260507044507 30 204 1.7 7.0 0.00 0.40 0.40 87 1019.1
20260507043505 30 205 3.5 7.0 0.00 0.40 0.40 87 1016.3
20260507043003 31 214 2.6 6.1 0.00 0.40 0.40 86 1019.1
20260507042005 31 202 1.7 6.1 0.00 0.40 0.40 86 1016.3
20260507041503 31 197 2.6 7.8 0.00 0.40 0.40 86 1019.0
20260507040006 31 219 3.5 7.8 0.00 0.40 0.40 86 1016.3
20260507040002 31 219 2.6 7.8 0.00 0.40 0.40 86 1019.1
20260507035504 31 232 3.5 7.8 0.00 0.40 0.40 85 1016.3
20260507035005 31 245 5.2 7.8 0.00 0.40 0.40 86 1016.3
20260507034505 31 205 3.5 7.0 0.00 0.40 0.40 86 1016.2
20260507034502 31 205 2.6 7.0 0.00 0.40 0.40 86 1019.0
20260507034005 31 175 3.5 7.0 0.00 0.40 0.40 85 1016.2
20260507033002 31 210 3.5 7.0 0.00 0.40 0.40 85 1019.0
20260507032504 32 210 2.6 6.1 0.00 0.40 0.40 84 1016.3
20260507032005 32 218 2.6 7.0 0.00 0.40 0.40 84 1016.2
20260507031502 32 174 3.5 8.7 0.00 0.40 0.40 83 1019.0
20260507031005 32 198 3.5 8.7 0.00 0.40 0.40 83 1016.2
20260507030504 32 182 4.3 8.7 0.00 0.40 0.40 83 1016.2
20260507030005 32 180 4.3 8.7 0.00 0.40 0.40 83 1016.2
20260507025504 32 212 6.1 8.7 0.00 0.40 0.40 82 1016.1
20260507025004 32 184 3.5 7.8 0.00 0.40 0.40 82 1016.1
20260507024502 32 171 2.6 7.8 0.00 0.40 0.40 83 1018.9
20260507024005 32 173 4.3 5.2 0.00 0.40 0.40 84 1016.1
20260507023504 31 167 3.5 7.0 0.00 0.40 0.40 85 1016.1
20260507023002 31 153 0.9 2.6 0.00 0.40 0.40 86 1018.9
20260507022005 31 153 1.7 4.3 0.00 0.40 0.40 86 1016.1
20260507021503 31 153 2.6 5.2 0.00 0.40 0.40 85 1016.1
20260507021501 31 153 1.7 5.2 0.00 0.40 0.40 85 1018.9
20260507021005 31 149 0.9 4.3 0.00 0.40 0.40 84 1016.1
20260507020504 31 156 1.7 2.6 0.00 0.40 0.40 83 1016.1
20260507020006 32 156 1.7 2.6 0.00 0.40 0.40 82 1016.1
20260507020003 32 156 1.7 2.6 0.00 0.40 0.40 82 1018.8
20260507015504 32 156 1.7 2.6 0.00 0.40 0.40 81 1016.0
20260507015005 32 156 1.7 2.6 0.00 0.40 0.40 81 1016.0
20260507014505 32 156 1.7 4.3 0.00 0.40 0.40 81 1016.0
20260507014503 32 156 0.9 4.3 0.00 0.40 0.40 81 1018.7
20260507014005 32 156 1.7 5.2 0.00 0.40 0.40 80 1016.0
20260507013503 32 156 3.5 5.2 0.00 0.40 0.40 80 1016.1
20260507013006 33 156 1.7 4.3 0.00 0.40 0.40 79 1018.8
20260507012004 33 156 2.6 2.6 0.00 0.40 0.40 78 1016.1
20260507011504 34 156 0.9 4.3 0.00 0.40 0.40 77 1018.9
20260507010504 34 156 1.7 2.6 0.00 0.40 0.40 76 1016.0
20260507010008 34 156 0.9 4.3 0.00 0.40 0.40 75 1018.8
20260507010005 34 156 0.9 4.3 0.00 0.40 0.40 75 1016.0
20260507005504 34 156 1.7 4.3 0.00 0.40 0.40 75 1016.0
20260507005004 34 156 2.6 4.3 0.00 0.40 0.40 75 1016.1
20260507004505 34 156 1.7 4.3 0.00 0.40 0.40 75 1016.0
20260507004502 34 156 0.9 4.3 0.00 0.40 0.40 75 1018.8
20260507003504 34 155 2.6 5.2 0.00 0.40 0.40 75 1016.1
20260507003007 34 155 1.7 6.1 0.00 0.40 0.40 74 1016.0
20260507003002 34 155 1.7 6.1 0.00 0.40 0.40 74 1018.8
20260507002505 34 155 3.5 6.1 0.00 0.40 0.40 74 1016.0
20260507002005 34 140 4.3 6.1 0.00 0.40 0.40 73 1016.0
20260507001504 34 159 3.5 5.2 0.00 0.40 0.40 73 1016.0
20260507001501 34 159 3.5 5.2 0.00 0.40 0.40 73 1018.8
20260507001004 34 159 2.6 5.2 0.00 0.40 0.40 74 1016.1
20260507000503 34 167 4.3 5.2 0.00 0.40 0.40 73 1016.1
20260507000003 35 150 3.5 5.2 0.00 0.40 0.40 71 1018.9
20260506235504 35 128 2.6 4.3 0.00 0.45 0.40 70 1016.1
20260506235005 35 188 2.6 5.2 0.00 0.45 0.40 71 1016.2
20260506234503 35 164 2.6 4.3 0.00 0.45 0.40 70 1016.2
20260506234005 35 138 1.7 3.5 0.00 0.45 0.40 70 1016.2
20260506233005 36 138 1.7 2.6 0.00 0.45 0.40 71 1016.3
20260506233003 36 138 0.9 2.6 0.00 0.45 0.40 71 1019.0
20260506232504 35 138 0.9 3.5 0.00 0.45 0.40 69 1016.3
20260506232005 36 138 1.7 3.5 0.00 0.45 0.40 68 1016.3
20260506231504 36 138 1.7 3.5 0.00 0.45 0.40 70 1016.3
20260506231502 36 138 0.9 3.5 0.00 0.45 0.40 70 1019.0
20260506231005 35 179 2.6 4.3 0.00 0.45 0.40 69 1016.3
20260506230504 35 236 0.9 4.3 0.00 0.45 0.40 70 1016.3
20260506230005 35 111 0.0 2.6 0.00 0.45 0.40 73 1016.3
20260506230002 35 111 0.0 2.6 0.00 0.45 0.40 73 1019.1
20260506225504 34 111 0.9 2.6 0.00 0.45 0.40 75 1016.4
20260506225005 33 111 0.9 3.5 0.00 0.45 0.40 77 1016.4
20260506224511 33 111 1.7 3.5 0.00 0.45 0.40 77 1019.0
20260506224504 33 111 2.6 3.5 0.00 0.45 0.40 77 1016.3
20260506224005 33 111 0.9 2.6 0.00 0.45 0.40 78 1016.4